| time (UTC) | temp C | wind direction | speed KPH | gust KPH | rain 1hr cm | rain 24hr cm | rain mn cm | humidity % | barometer mb |
| 20260903204553 | 35 | 69 | 8.0 | 17.7 | 0.00 | 0.00 | 0.00 | 54 | 1008.7 |
| 20260903203050 | 35 | 136 | 8.0 | 17.7 | 0.00 | 0.00 | 0.00 | 54 | 1009.1 |
| 20260903201547 | 35 | 71 | 4.8 | 12.9 | 0.00 | 0.00 | 0.00 | 51 | 1009.4 |
| 20260903200044 | 35 | 153 | 4.8 | 11.3 | 0.00 | 0.00 | 0.00 | 55 | 1009.5 |
| 20260903194540 | 33 | 126 | 4.8 | 14.5 | 0.00 | 0.00 | 0.00 | 57 | 1009.7 |
| 20260903193036 | 33 | 47 | 4.8 | 11.3 | 0.00 | 0.00 | 0.00 | 57 | 1009.9 |
| 20260903191546 | 33 | 117 | 3.2 | 11.3 | 0.00 | 0.00 | 0.00 | 58 | 1010.1 |
| 20260903190029 | 32 | 76 | 3.2 | 12.9 | 0.00 | 0.00 | 0.00 | 59 | 1010.4 |
| 20260903184540 | 32 | 109 | 4.8 | 14.5 | 0.00 | 0.00 | 0.00 | 59 | 1010.6 |
| 20260903183028 | 32 | 109 | 3.2 | 8.0 | 0.00 | 0.00 | 0.00 | 59 | 1010.9 |
| 20260903181526 | 32 | 108 | 3.2 | 12.9 | 0.00 | 0.00 | 0.00 | 60 | 1011.0 |
| 20260903180031 | 32 | 49 | 4.8 | 11.3 | 0.00 | 0.00 | 0.00 | 60 | 1011.2 |
| 20260903174519 | 31 | 127 | 1.6 | 9.7 | 0.00 | 0.00 | 0.00 | 64 | 1011.5 |
| 20260903173020 | 31 | 107 | 3.2 | 9.7 | 0.00 | 0.00 | 0.00 | 64 | 1011.7 |
| 20260903171515 | 31 | 128 | 3.2 | 9.7 | 0.00 | 0.00 | 0.00 | 64 | 1011.8 |
| 20260903170013 | 31 | 119 | 3.2 | 11.3 | 0.00 | 0.00 | 0.00 | 65 | 1011.9 |
| 20260903164510 | 31 | 150 | 4.8 | 11.3 | 0.00 | 0.00 | 0.00 | 66 | 1011.6 |
| 20260903163008 | 30 | 193 | 4.8 | 17.7 | 0.00 | 0.00 | 0.00 | 66 | 1011.5 |
| 20260903161505 | 30 | 194 | 8.0 | 17.7 | 0.00 | 0.00 | 0.00 | 67 | 1011.5 |
| 20260903160002 | 30 | 159 | 4.8 | 17.7 | 0.00 | 0.00 | 0.00 | 69 | 1011.5 |
| 20260903154559 | 29 | 182 | 8.0 | 16.1 | 0.00 | 0.00 | 0.00 | 71 | 1011.3 |
| 20260903153056 | 28 | 140 | 4.8 | 12.9 | 0.00 | 0.00 | 0.00 | 74 | 1011.2 |
| 20260903151554 | 28 | 185 | 6.4 | 17.7 | 0.00 | 0.00 | 0.00 | 75 | 1011.2 |
| 20260903150054 | 28 | 207 | 4.8 | 16.1 | 0.00 | 0.00 | 0.00 | 77 | 1011.3 |
| 20260903144550 | 28 | 115 | 3.2 | 12.9 | 0.00 | 0.00 | 0.00 | 79 | 1011.3 |
| 20260903143105 | 27 | 182 | 6.4 | 14.5 | 0.00 | 0.00 | 0.00 | 80 | 1011.4 |
| 20260903141544 | 27 | 190 | 6.4 | 12.9 | 0.00 | 0.00 | 0.00 | 82 | 1011.2 |
| 20260903140044 | 27 | 163 | 4.8 | 9.7 | 0.00 | 0.00 | 0.00 | 84 | 1011.3 |
| 20260903134542 | 26 | 177 | 3.2 | 12.9 | 0.00 | 0.00 | 0.00 | 85 | 1011.3 |
| 20260903133041 | 26 | 175 | 4.8 | 16.1 | 0.00 | 0.00 | 0.00 | 86 | 1011.3 |
| 20260903131548 | 26 | 127 | 4.8 | 16.1 | 0.00 | 0.00 | 0.00 | 86 | 1011.3 |
| 20260903130038 | 26 | 158 | 4.8 | 12.9 | 0.00 | 0.00 | 0.00 | 87 | 1011.3 |
| 20260903124540 | 26 | 163 | 3.2 | 16.1 | 0.00 | 0.00 | 0.00 | 88 | 1011.1 |
| 20260903123041 | 26 | 196 | 4.8 | 12.9 | 0.00 | 0.00 | 0.00 | 88 | 1011.1 |
| 20260903121536 | 26 | 167 | 3.2 | 17.7 | 0.00 | 0.00 | 0.00 | 88 | 1011.0 |
| 20260903120038 | 26 | 171 | 3.2 | 17.7 | 0.00 | 0.00 | 0.00 | 87 | 1011.0 |
| 20260903114536 | 26 | 153 | 4.8 | 12.9 | 0.00 | 0.00 | 0.00 | 88 | 1010.8 |
| 20260903113041 | 26 | 188 | 6.4 | 12.9 | 0.00 | 0.00 | 0.00 | 88 | 1010.8 |
| 20260903111532 | 26 | 148 | 6.4 | 12.9 | 0.00 | 0.00 | 0.00 | 88 | 1010.9 |
| 20260903110032 | 26 | 98 | 4.8 | 11.3 | 0.00 | 0.00 | 0.00 | 88 | 1010.8 |
| 20260903104528 | 26 | 165 | 4.8 | 12.9 | 0.00 | 0.00 | 0.00 | 88 | 1010.6 |
| 20260903103029 | 26 | 175 | 3.2 | 9.7 | 0.00 | 0.00 | 0.00 | 87 | 1010.5 |
| 20260903101527 | 26 | 177 | 4.8 | 11.3 | 0.00 | 0.00 | 0.00 | 87 | 1010.5 |
| 20260903100027 | 26 | 175 | 3.2 | 12.9 | 0.00 | 0.00 | 0.00 | 87 | 1010.5 |
| 20260903094524 | 26 | 198 | 4.8 | 11.3 | 0.00 | 0.00 | 0.00 | 86 | 1010.5 |
| 20260903093029 | 26 | 155 | 3.2 | 12.9 | 0.00 | 0.00 | 0.00 | 86 | 1010.6 |
| 20260903091521 | 26 | 146 | 4.8 | 12.9 | 0.00 | 0.00 | 0.00 | 85 | 1010.9 |
| 20260903090023 | 26 | 186 | 4.8 | 19.3 | 0.00 | 0.00 | 0.00 | 85 | 1010.8 |
| 20260903084523 | 26 | 169 | 4.8 | 14.5 | 0.00 | 0.00 | 0.00 | 84 | 1010.8 |
| 20260903083017 | 26 | 150 | 4.8 | 14.5 | 0.00 | 0.00 | 0.00 | 84 | 1010.8 |
| 20260903081516 | 26 | 160 | 1.6 | 12.9 | 0.00 | 0.00 | 0.00 | 83 | 1010.9 |
| 20260903080015 | 26 | 124 | 3.2 | 14.5 | 0.00 | 0.00 | 0.00 | 82 | 1010.8 |
| 20260903074513 | 26 | 156 | 3.2 | 14.5 | 0.00 | 0.00 | 0.00 | 81 | 1010.9 |
| 20260903073012 | 26 | 176 | 6.4 | 12.9 | 0.00 | 0.00 | 0.00 | 81 | 1010.9 |
| 20260903071511 | 26 | 165 | 3.2 | 11.3 | 0.00 | 0.00 | 0.00 | 81 | 1011.0 |
| 20260903070010 | 26 | 139 | 3.2 | 8.0 | 0.00 | 0.00 | 0.00 | 81 | 1011.1 |
| 20260903064508 | 26 | 150 | 4.8 | 11.3 | 0.00 | 0.00 | 0.00 | 81 | 1011.1 |
| 20260903063006 | 26 | 124 | 4.8 | 11.3 | 0.00 | 0.00 | 0.00 | 81 | 1011.3 |
| 20260903061506 | 26 | 83 | 3.2 | 12.9 | 0.00 | 0.00 | 0.00 | 80 | 1011.3 |
| 20260903060004 | 26 | 102 | 4.8 | 11.3 | 0.00 | 0.00 | 0.00 | 80 | 1011.4 |
| 20260903054502 | 26 | 163 | 3.2 | 17.7 | 0.00 | 0.00 | 0.00 | 79 | 1011.5 |
| 20260903053100 | 27 | 129 | 3.2 | 14.5 | 0.00 | 0.00 | 0.00 | 78 | 1011.4 |
| 20260903051603 | 27 | 128 | 6.4 | 12.9 | 0.00 | 0.00 | 0.00 | 76 | 1011.3 |
| 20260903050056 | 27 | 146 | 4.8 | 14.5 | 0.00 | 0.00 | 0.00 | 74 | 1011.3 |
| 20260903044555 | 27 | 93 | 3.2 | 12.9 | 0.00 | 0.00 | 0.00 | 73 | 1011.2 |
| 20260903043053 | 27 | 88 | 3.2 | 9.7 | 0.00 | 0.00 | 0.00 | 72 | 1011.2 |
| 20260903041557 | 27 | 150 | 1.6 | 12.9 | 0.00 | 0.00 | 0.00 | 71 | 1011.2 |
| 20260903040053 | 27 | 83 | 9.7 | 19.3 | 0.00 | 0.00 | 0.00 | 71 | 1011.3 |
| 20260903034559 | 27 | 105 | 4.8 | 14.5 | 0.00 | 0.00 | 0.00 | 74 | 1011.3 |
| 20260903033051 | 28 | 62 | 3.2 | 14.5 | 0.00 | 0.00 | 0.00 | 73 | 1011.2 |
| 20260903031552 | 27 | 116 | 3.2 | 12.9 | 0.00 | 0.00 | 0.00 | 72 | 1010.9 |
| 20260903030051 | 27 | 107 | 3.2 | 12.9 | 0.00 | 0.00 | 0.00 | 75 | 1010.6 |
| 20260903024553 | 28 | 109 | 3.2 | 8.0 | 0.00 | 0.00 | 0.00 | 70 | 1010.5 |
| 20260903023112 | 30 | 107 | 0.0 | 0.0 | 0.00 | 0.00 | 0.00 | 61 | 1010.0 |
| 20260903021549 | 31 | 107 | 0.0 | 3.2 | 0.00 | 0.00 | 0.00 | 60 | 1009.6 |
| 20260903020148 | 31 | 38 | 0.0 | 3.2 | 0.00 | 0.00 | 0.00 | 54 | 1009.4 |
| 20260903014547 | 32 | 59 | 0.0 | 3.2 | 0.00 | 0.00 | 0.00 | 53 | 1009.2 |
| 20260903013050 | 32 | 60 | 0.0 | 3.2 | 0.00 | 0.00 | 0.00 | 52 | 1009.1 |
| 20260903011546 | 32 | 62 | 1.6 | 3.2 | 0.00 | 0.00 | 0.00 | 51 | 1009.2 |
| 20260903010045 | 33 | 22 | 0.0 | 1.6 | 0.00 | 0.00 | 0.00 | 50 | 1009.0 |
| 20260903004543 | 33 | 156 | 0.0 | 1.6 | 0.00 | 0.00 | 0.00 | 49 | 1009.1 |
| 20260903003043 | 34 | 156 | 0.0 | 1.6 | 0.00 | 0.00 | 0.00 | 48 | 1009.1 |
| 20260903001542 | 34 | 156 | 0.0 | 3.2 | 0.00 | 0.00 | 0.00 | 48 | 1009.0 |
| 20260903000043 | 35 | 156 | 0.0 | 3.2 | 0.00 | 0.00 | 0.00 | 45 | 1009.0 |
| 20260902234541 | 35 | 155 | 3.2 | 6.4 | 0.00 | 0.00 | 0.00 | 44 | 1009.0 |
| 20260902233041 | 35 | 107 | 0.0 | 4.8 | 0.00 | 0.00 | 0.00 | 43 | 1009.0 |
| 20260902231542 | 35 | 166 | 3.2 | 11.3 | 0.00 | 0.00 | 0.00 | 42 | 1009.1 |
| 20260902230042 | 37 | 225 | 3.2 | 14.5 | 0.00 | 0.00 | 0.00 | 41 | 1009.0 |
| 20260902224538 | 37 | 30 | 3.2 | 8.0 | 0.00 | 0.00 | 0.00 | 38 | 1008.8 |
| 20260902223037 | 37 | 30 | 1.6 | 11.3 | 0.00 | 0.00 | 0.00 | 39 | 1008.8 |
| 20260902221536 | 36 | 59 | 3.2 | 8.0 | 0.00 | 0.00 | 0.00 | 40 | 1008.9 |
| 20260902220033 | 36 | 298 | 0.0 | 14.5 | 0.00 | 0.00 | 0.00 | 40 | 1009.1 |
| 20260902214531 | 37 | 20 | 3.2 | 8.0 | 0.00 | 0.00 | 0.00 | 40 | 1009.2 |
| 20260902213032 | 37 | 275 | 1.6 | 11.3 | 0.00 | 0.00 | 0.00 | 38 | 1009.3 |
| 20260902211529 | 38 | 342 | 3.2 | 8.0 | 0.00 | 0.00 | 0.00 | 36 | 1009.2 |
| 20260902210026 | 37 | 190 | 0.0 | 8.0 | 0.00 | 0.00 | 0.00 | 39 | 1009.3 |